{"data":{"norad_id":47978,"epoch":"2026-05-24T12:44:57.633504Z","epoch_age_seconds":125929,"freshness":"FRESH","line1":"1 47978U 21024B   26144.53122261 -.00000632  00000+0 -86066-5 0  9996","line2":"2 47978  53.1622 339.6457 0001661 101.9753 258.1435 15.31697499286247","mean_motion":15.31697499,"eccentricity":0.0001661,"inclination_deg":53.1622,"raan_deg":339.6457,"arg_perigee_deg":101.9753,"mean_anomaly_deg":258.1435,"bstar":-8.6066e-6,"rev_number":28624,"period_min":94.013341468543,"perigee_km":469.60985087941,"apogee_km":471.88505029389,"semimajor_km":6848.8844505867,"source":"CELESTRAK","updated_at":"2026-05-25T13:38:16.638276Z"}}